Date,TemperatureHighF,TemperatureAvgF,TemperatureLowF,DewpointHighF,DewpointAvgF,DewpointLowF,HumidityHigh,HumidityAvg,HumidityLow,PressureMaxIn,PressureMinIn,WindSpeedMaxMPH,WindSpeedAvgMPH,GustSpeedMaxMPH,PrecipitationSumIn
2013-1-1,40,24,12,23,9,-100,94,57,26,29.09,28.94,19,8,28,0.00
2013-1-2,35,18,2,18,2,-100,77,50,25,29.18,29.06,20,10,28,0.00
2013-1-3,46,17,2,8,-3,-100,63,42,19,29.18,29.03,8,4,11,0.00
2013-1-4,50,24,11,10,-2,-100,47,33,19,29.06,28.94,9,4,12,0.00
2013-1-5,47,21,9,13,2,-100,58,43,24,29.09,29.00,12,6,16,0.00
2013-1-6,41,28,11,10,4,-100,50,35,23,29.03,28.67,30,9,40,0.00
2013-1-7,51,26,10,16,5,-100,58,42,21,28.88,28.59,14,4,15,0.00
2013-1-8,58,29,15,21,7,-100,70,42,19,28.97,28.61,18,6,25,0.00
2013-1-9,57,38,17,19,9,-100,64,31,20,29.00,28.73,22,13,29,0.00
2013-1-10,50,39,25,26,8,-100,96,33,19,28.73,28.35,25,13,35,0.00
2013-1-11,25,9,1,24,1,-100,96,73,71,28.70,28.44,23,-1,31,0.00
2013-1-12,15,5,0,10,-4,-100,78,72,72,28.88,28.70,20,7,29,0.00
2013-1-13,22,6,-4,14,-9,-100,78,53,34,28.97,28.82,14,6,16,0.00
2013-1-14,5,4,2,-14,-15,-17,37,37,37,28.94,28.91,10,7,13,0.00
2013-3-19,14,13,12,2,2,1,57,57,57,29.09,29.09,4,2,4,0.00
2013-3-20,17,15,13,9,7,2,74,66,57,29.15,29.03,9,-20,11,0.00
2013-3-30,60,44,26,22,13,-100,63,32,20,29.03,28.97,22,-27,28,0.00
2013-3-31,69,41,24,29,14,-100,84,43,15,29.03,28.82,23,9,33,0.00
2013-4-1,70,39,20,24,11,-100,78,39,15,29.06,28.88,12,4,23,0.00
2013-4-2,71,43,20,26,9,-100,67,31,14,29.03,28.82,18,6,28,0.00
2013-4-3,74,50,32,24,13,-100,54,26,14,29.00,28.82,16,8,22,0.00
2013-4-4,84,51,27,29,18,-100,80,36,13,29.03,28.76,24,7,34,0.09
2013-4-5,85,51,37,39,19,-100,82,37,13,28.82,28.53,24,8,34,0.04
2013-4-6,73,49,35,36,18,-100,80,37,16,28.82,28.70,13,5,17,0.00
2013-4-7,74,49,29,40,23,-100,83,46,15,28.76,28.53,15,-28,23,0.00
2013-4-8,38,24,13,38,19,-100,100,80,63,29.06,28.56,23,12,27,0.00
2013-4-9,24,14,9,9,2,-100,81,62,38,29.15,29.03,19,11,24,0.00
2013-4-10,58,24,10,17,4,-100,76,46,17,29.09,28.76,8,4,11,0.04
2013-4-11,16,14,10,9,3,-100,77,64,60,28.79,28.67,8,4,11,0.00
2013-4-12,30,28,26,22,18,-100,80,70,63,28.79,28.76,10,5,13,0.00
2013-4-13,61,40,26,32,23,-100,97,57,21,28.76,28.26,39,-40,46,0.00
2013-4-14,46,29,17,31,16,-100,93,64,30,28.79,28.41,26,-260,35,0.00
2013-4-15,32,22,14,11,5,-100,80,51,34,28.97,28.73,13,7,18,0.00
2013-4-16,32,22,15,17,11,-100,82,67,43,29.09,28.91,13,-15,16,0.00
2013-4-17,33,24,18,16,12,-100,83,62,38,29.06,29.00,15,4,19,0.00
2013-4-18,52,29,9,21,7,-100,80,47,21,29.03,28.88,16,6,22,0.00
2013-4-19,58,41,27,31,17,-100,84,45,22,28.88,28.67,15,-1,20,0.00
2013-4-20,68,45,30,33,24,-100,88,53,18,28.76,28.64,14,3,20,0.00
2013-4-21,60,36,27,40,28,-100,99,75,30,28.91,28.76,17,7,24,0.00
2013-4-22,41,26,8,26,10,-100,99,58,23,29.21,28.88,17,-12,23,0.00
2013-4-23,60,28,1,26,3,-100,77,38,17,29.21,28.94,11,-34,15,0.00
2013-4-24,27,25,24,16,10,-100,62,54,49,29.00,28.97,9,-21,10,0.00
2013-4-30,32,30,28,16,15,13,52,49,45,28.97,28.88,14,10,17,0.00
2013-5-1,49,33,21,17,8,-100,67,38,20,29.35,28.94,12,5,17,0.00
2013-5-2,66,41,19,23,10,-100,76,33,15,29.41,29.18,13,4,17,0.00
2013-5-3,80,52,25,24,12,-100,47,22,12,29.18,28.91,12,5,15,0.00
2013-5-4,74,50,30,41,12,-100,76,25,13,29.12,29.00,13,1,25,0.00
2013-5-5,77,51,28,22,13,-100,51,25,13,29.12,28.82,11,4,15,0.00
2013-5-6,82,56,32,28,16,-100,44,23,12,28.91,28.76,16,5,20,0.00
2013-5-7,91,61,38,32,19,-100,48,23,11,28.82,28.64,14,-16,18,0.00
2013-5-8,77,56,34,36,20,-100,70,31,14,28.97,28.70,17,6,26,0.91
2013-5-9,92,55,35,46,27,-100,100,46,12,29.03,28.85,16,6,20,0.04
2013-5-10,82,58,39,72,28,-100,100,46,14,29.18,29.00,27,8,30,0.00
2013-5-11,83,56,27,45,20,-100,100,32,13,29.26,28.94,10,2,13,0.00
2013-5-12,93,67,43,47,23,-100,100,23,12,29.06,28.76,14,6,19,0.00
2013-5-13,99,74,52,35,23,-100,27,16,10,28.97,28.67,12,5,17,0.00
2013-5-14,87,69,48,50,23,-100,100,21,13,28.91,28.64,18,7,23,0.00
2013-5-15,71,55,43,38,23,-100,50,32,17,28.82,28.67,25,10,32,0.00
2013-5-16,87,64,49,54,35,-100,100,45,14,28.82,28.67,18,6,27,0.00
2013-5-17,85,62,48,65,42,-100,100,59,19,28.85,28.67,26,5,31,0.00
2013-5-18,70,55,48,52,42,-100,100,70,34,28.88,28.73,17,5,24,0.00
2013-5-19,62,52,48,52,44,-100,100,80,44,28.85,28.76,18,7,23,0.67
2013-5-20,48,44,43,45,38,-100,100,84,63,29.03,28.82,26,-22,40,0.45
2013-5-21,60,49,41,45,32,-100,100,59,28,29.03,28.94,17,10,24,0.08
2013-5-22,70,50,40,47,34,-100,100,63,24,29.06,28.94,23,7,32,0.13
2013-5-23,66,51,46,55,28,-100,100,51,27,29.06,28.76,45,-122,56,0.09
2013-5-24,82,65,51,55,30,-100,100,32,13,28.91,28.73,0,-999,0,0.04
2013-5-25,84,64,45,61,31,-100,100,39,13,29.00,28.76,0,-999,0,0.00
2013-5-26,81,62,50,56,43,-100,100,59,20,28.91,28.73,0,-999,0,0.20
2013-5-27,74,56,41,49,35,-100,84,49,23,28.85,28.70,0,-999,0,0.00
2013-5-28,79,58,38,54,30,-100,100,47,15,28.82,28.61,0,-999,0,0.00
2013-5-29,83,56,47,65,43,-100,100,69,20,28.70,28.56,0,-999,0,0.50
2013-5-30,50,41,43,50,26,-100,100,80,74,28.73,28.53,0,-999,0,1.71
2013-5-31,49,44,42,45,34,-100,100,75,52,29.06,28.70,0,-999,0,0.33
2013-6-1,67,53,41,49,30,-100,100,51,22,29.18,29.06,0,-999,0,0.12
2013-6-2,76,61,39,51,31,-100,100,44,18,29.12,28.64,0,-999,0,0.00
2013-6-3,73,58,45,48,26,-100,93,36,16,28.97,28.59,0,-999,0,0.00
2013-6-4,64,47,36,44,24,-100,100,45,24,29.21,28.97,0,-999,0,0.00
2013-6-5,78,54,31,60,25,-100,100,45,15,29.21,29.03,0,-999,0,0.00
2013-6-6,92,62,38,54,30,-100,100,40,12,29.09,29.00,0,-999,0,0.00
2013-6-7,96,68,44,49,33,-100,100,40,11,29.06,28.70,0,-999,0,0.04
2013-6-8,77,62,49,56,35,-100,100,49,18,28.94,28.73,0,-999,0,0.13
2013-6-9,94,69,43,60,32,-100,100,38,11,28.94,28.64,0,-999,0,0.00
2013-6-10,86,71,53,46,36,-100,64,32,14,28.85,28.64,0,-999,0,0.00
2013-6-11,89,69,53,56,44,-100,100,49,15,28.91,28.70,0,-999,0,0.28
2013-6-12,81,64,50,60,42,-100,100,55,21,29.15,28.91,0,-999,0,0.00
2013-6-13,80,66,52,48,37,-100,80,40,19,29.09,28.76,0,-999,0,0.00
2013-6-14,91,67,51,50,32,-100,75,33,12,29.09,28.73,0,-999,0,0.00
2013-6-15,93,64,37,70,31,-100,100,39,12,29.09,28.85,0,-999,0,0.00
2013-6-16,95,69,44,54,31,-100,100,36,11,29.06,28.94,0,-999,0,0.00
2013-6-17,95,70,48,46,35,-100,66,32,11,29.15,29.00,0,-999,0,0.00
2013-6-18,90,66,52,57,39,-100,100,47,15,29.12,28.82,0,-999,0,0.00
2013-6-19,87,72,52,53,34,-100,100,30,13,28.85,28.59,0,-999,0,0.00
2013-6-20,93,70,51,56,26,-100,100,23,11,28.94,28.67,0,-999,0,0.00
2013-6-21,71,59,53,59,44,-100,100,61,39,28.97,28.88,0,-999,0,0.92
2013-6-22,80,55,47,60,45,-100,100,79,26,29.03,28.82,0,-999,0,0.58
2013-6-23,92,63,42,66,42,28,100,66,12,29.00,28.88,0,-999,0,0.00